TimeEDT,TemperatureF,Dew PointF,Humidity,Sea Level PressureIn,VisibilityMPH,Wind Direction,Wind SpeedMPH,Gust SpeedMPH,PrecipitationIn,Events,Conditions,WindDirDegrees,DateUTC
12:35 AM,50.5,50.2,99,30.04,0.2,Calm,Calm,-,N/A,Fog,Fog,0,2013-05-09 04:35:00
12:55 AM,50.0,49.8,99,30.04,0.8,Calm,Calm,-,N/A,,Overcast,0,2013-05-09 04:55:00
1:15 AM,48.4,48.2,99,30.03,4.0,Calm,Calm,-,N/A,,Mostly Cloudy,0,2013-05-09 05:15:00
1:35 AM,48.0,47.7,99,30.03,1.2,Calm,Calm,-,N/A,,Overcast,0,2013-05-09 05:35:00
1:55 AM,47.8,47.8,100,30.03,0.5,Calm,Calm,-,N/A,Fog,Fog,0,2013-05-09 05:55:00
2:35 AM,47.7,47.5,99,30.02,0.2,Calm,Calm,-,N/A,Fog,Fog,0,2013-05-09 06:35:00
3:15 AM,46.8,46.6,99,30.02,0.5,Calm,Calm,-,N/A,Fog,Fog,0,2013-05-09 07:15:00
3:35 AM,45.7,45.5,99,30.02,1.5,Calm,Calm,-,0.01,,Mostly Cloudy,0,2013-05-09 07:35:00
3:55 AM,45.3,45.1,99,30.02,0.8,Calm,Calm,-,0.01,,Overcast,0,2013-05-09 07:55:00
4:15 AM,44.6,44.2,99,30.02,1.2,Calm,Calm,-,N/A,,Overcast,0,2013-05-09 08:15:00
4:35 AM,43.9,43.7,99,30.02,4.0,Calm,Calm,-,N/A,,Mostly Cloudy,0,2013-05-09 08:35:00
4:55 AM,43.5,43.3,99,30.02,7.0,Calm,Calm,-,N/A,,Scattered Clouds,0,2013-05-09 08:55:00
5:35 AM,42.8,42.6,99,30.03,10.0,Calm,Calm,-,N/A,,Clear,0,2013-05-09 09:35:00
5:55 AM,42.8,42.6,99,30.03,5.0,Calm,Calm,-,N/A,,Clear,0,2013-05-09 09:55:00
6:15 AM,42.1,41.9,99,30.04,10.0,Calm,Calm,-,N/A,,Clear,0,2013-05-09 10:15:00
6:55 AM,43.2,43.0,99,30.06,5.0,Calm,Calm,-,N/A,,Clear,0,2013-05-09 10:55:00
7:15 AM,44.8,44.6,99,30.07,10.0,Calm,Calm,-,N/A,,Clear,0,2013-05-09 11:15:00
7:35 AM,46.8,46.6,99,30.08,10.0,Calm,Calm,-,N/A,,Clear,0,2013-05-09 11:35:00
7:55 AM,50.0,49.8,99,30.08,10.0,Calm,Calm,-,N/A,,Clear,0,2013-05-09 11:55:00
8:55 AM,59.5,57.4,93,30.08,10.0,Calm,Calm,-,N/A,,Overcast,0,2013-05-09 12:55:00
9:15 AM,61.2,57.7,88,30.09,10.0,WNW,3.5,-,N/A,,Overcast,290,2013-05-09 13:15:00
9:35 AM,62.4,58.5,87,30.10,10.0,Calm,Calm,-,N/A,,Mostly Cloudy,0,2013-05-09 13:35:00
10:15 AM,66.9,59.4,77,30.09,10.0,West,4.6,-,N/A,,Scattered Clouds,270,2013-05-09 14:15:00
10:35 AM,68.7,58.5,70,30.09,10.0,SW,3.5,-,N/A,,Clear,230,2013-05-09 14:35:00
11:35 AM,72.1,57.2,59,30.09,10.0,North,3.5,-,N/A,,Scattered Clouds,360,2013-05-09 15:35:00
11:55 AM,74.1,57.7,56,30.08,10.0,NW,6.9,-,N/A,,Clear,310,2013-05-09 15:55:00
12:15 PM,74.5,57.2,55,30.09,10.0,Calm,Calm,-,N/A,,Scattered Clouds,0,2013-05-09 16:15:00
12:35 PM,76.1,55.4,49,30.08,10.0,NW,6.9,-,N/A,,Scattered Clouds,310,2013-05-09 16:35:00
1:15 PM,76.6,56.1,49,30.08,10.0,SSW,3.5,-,N/A,,Scattered Clouds,200,2013-05-09 17:15:00
1:55 PM,78.3,56.1,46,30.07,10.0,NW,4.6,-,N/A,,Scattered Clouds,310,2013-05-09 17:55:00
2:15 PM,80.1,53.1,39,30.07,10.0,NE,3.5,-,N/A,,Mostly Cloudy,40,2013-05-09 18:15:00
2:35 PM,80.1,49.6,34,30.07,10.0,West,6.9,-,N/A,,Clear,280,2013-05-09 18:35:00
2:55 PM,80.1,48.6,33,30.06,10.0,West,4.6,-,N/A,,Scattered Clouds,260,2013-05-09 18:55:00
3:35 PM,77.9,54.5,44,30.05,10.0,West,3.5,-,N/A,,Mostly Cloudy,260,2013-05-09 19:35:00
3:55 PM,78.3,54.7,44,30.05,10.0,Calm,Calm,-,N/A,,Scattered Clouds,0,2013-05-09 19:55:00
4:15 PM,77.2,53.2,43,30.05,10.0,Calm,Calm,-,N/A,,Mostly Cloudy,0,2013-05-09 20:15:00
4:35 PM,76.6,56.3,49,30.04,10.0,SSW,4.6,-,N/A,,Scattered Clouds,200,2013-05-09 20:35:00
4:55 PM,80.1,53.6,40,30.03,10.0,SSW,4.6,-,N/A,,Clear,210,2013-05-09 20:55:00
5:15 PM,78.3,55.2,45,30.04,10.0,SW,4.6,-,N/A,,Scattered Clouds,230,2013-05-09 21:15:00
5:35 PM,75.7,56.8,52,30.04,10.0,Calm,Calm,-,N/A,,Overcast,0,2013-05-09 21:35:00
5:55 PM,77.5,60.6,56,30.03,10.0,Calm,Calm,-,N/A,,Mostly Cloudy,0,2013-05-09 21:55:00
6:15 PM,77.9,58.8,52,30.03,10.0,Calm,Calm,-,N/A,,Clear,0,2013-05-09 22:15:00
6:35 PM,78.3,55.8,46,30.03,10.0,SW,3.5,-,N/A,,Clear,220,2013-05-09 22:35:00
6:55 PM,77.2,57.4,50,30.03,10.0,Calm,Calm,-,N/A,,Clear,0,2013-05-09 22:55:00
7:15 PM,76.6,54.7,46,30.03,10.0,Calm,Calm,-,N/A,,Clear,0,2013-05-09 23:15:00
7:35 PM,71.6,62.1,72,30.04,10.0,Calm,Calm,-,N/A,,Clear,0,2013-05-09 23:35:00
7:55 PM,68.0,62.6,83,30.04,10.0,Calm,Calm,-,N/A,,Clear,0,2013-05-09 23:55:00
8:15 PM,64.8,59.9,84,30.05,10.0,Calm,Calm,-,N/A,,Clear,0,2013-05-10 00:15:00
8:35 PM,62.8,60.1,91,30.05,10.0,Calm,Calm,-,N/A,,Clear,0,2013-05-10 00:35:00
8:55 PM,62.6,59.0,88,30.06,10.0,Calm,Calm,-,N/A,,Clear,0,2013-05-10 00:55:00
9:15 PM,60.3,58.6,94,30.07,10.0,Calm,Calm,-,N/A,,Clear,0,2013-05-10 01:15:00
9:35 PM,59.9,58.3,94,30.08,10.0,Calm,Calm,-,N/A,,Clear,0,2013-05-10 01:35:00
9:55 PM,59.4,58.1,96,30.08,10.0,Calm,Calm,-,N/A,,Clear,0,2013-05-10 01:55:00
10:15 PM,59.0,57.7,96,30.08,10.0,Calm,Calm,-,N/A,,Clear,0,2013-05-10 02:15:00
10:35 PM,58.5,57.6,97,30.09,7.0,Calm,Calm,-,N/A,,Scattered Clouds,0,2013-05-10 02:35:00
10:55 PM,57.7,56.8,97,30.09,7.0,Calm,Calm,-,N/A,,Clear,0,2013-05-10 02:55:00
11:15 PM,57.6,57.0,98,30.09,7.0,Calm,Calm,-,N/A,,Clear,0,2013-05-10 03:15:00
11:55 PM,56.5,55.9,98,30.09,4.0,Calm,Calm,-,N/A,,Clear,0,2013-05-10 03:55:00